Change the Weather History Date:

Friday, February 3, 2012

  Actual Average Record
Temperature  
Mean Temperature 32 °F -  
Max Temperature 35 °F 22 °F 55 °F (2005)
Min Temperature 30 °F 4 °F -21 °F (1989)
Degree Days  
Heating Degree Days 32    
Moisture  
Dew Point 30 °F    
Average Humidity 92    
Maximum Humidity 100    
Minimum Humidity 87    
Precipitation  
Precipitation 0.00 in - - ()
Sea Level Pressure  
Sea Level Pressure 30.37 in    
Wind  
Wind Speed 14 mph (NE)    
Max Wind Speed 22 mph    
Max Gust Speed 28 mph    
Visibility 3 miles    
Events Fog    
Averages and records for this station are not official NWS values.
T = Trace of Precipitation, MM = Missing Value Source: NWS Daily Summary

Daily Weather History Graph

Daily Weather History Graph

Search for Another Location

Airport or City:

Trip Planner

Search our weather history database for the weather conditions in past years. The results will help you decide how hot, cold, wet, or windy it might be!

Date:

Astronomy

Feb. 03, 2012 Rise Set
Actual Time 7:34 AM CST 5:35 PM CST
Civil Twilight 7:04 AM CST 6:05 PM CST
Nautical Twilight 6:30 AM CST 6:39 PM CST
Astronomical Twilight 5:57 AM CST 7:12 PM CST
Moon 1:33 PM CST (2/3) 4:14 AM CST (2/3)
Length of Visible Light 11h 00m
Length of Day
10h 00m
Waxing Gibbous, 82% of the Moon is Illuminated
Feb 3
Waxing Gibbous
Feb 7
Full
Feb 14
Last Quarter
Feb 21
New
Feb 29
First Quarter

Hourly Weather History & Observations

Time (CST) Temp. Windchill Dew Point Humidity Pressure Visibility Wind Dir Wind Speed Gust Speed Precip Events Conditions
12:53 AM 35.1 °F 27.4 °F 33.1 °F 92% 30.33 in 6.0 mi ENE 10.4 mph - N/A   Clear
1:53 AM 35.1 °F 28.6 °F 33.1 °F 92% 30.33 in 5.0 mi East 8.1 mph - N/A   Clear
2:53 AM 34.0 °F 26.6 °F 30.9 °F 89% 30.35 in 9.0 mi East 9.2 mph - N/A   Clear
3:53 AM 33.1 °F 24.4 °F 30.9 °F 92% 30.35 in 7.0 mi ENE 11.5 mph - N/A   Clear
4:53 AM 33.1 °F 24.4 °F 30.0 °F 89% 30.37 in 6.0 mi ENE 11.5 mph - N/A   Clear
5:53 AM 32.0 °F 21.6 °F 30.0 °F 92% 30.37 in 7.0 mi ENE 15.0 mph - N/A   Partly Cloudy
6:53 AM 32.0 °F 21.6 °F 30.0 °F 92% 30.40 in 7.0 mi NE 15.0 mph - N/A   Mostly Cloudy
7:24 AM 32.0 °F 22.1 °F 30.2 °F 93% 30.36 in 5.0 mi NE 13.8 mph - N/A   Partly Cloudy
7:41 AM 32.0 °F 21.6 °F 28.4 °F 87% 30.36 in 5.0 mi ENE 15.0 mph - N/A   Mostly Cloudy
7:53 AM 32.0 °F 22.5 °F 30.0 °F 92% 30.41 in 3.0 mi NE 12.7 mph - N/A   Mostly Cloudy
8:53 AM 32.0 °F 22.1 °F 28.9 °F 88% 30.43 in 4.0 mi ENE 13.8 mph - N/A   Overcast
9:16 AM 32.0 °F 21.2 °F 30.2 °F 93% 30.37 in 2.5 mi NE 16.1 mph - N/A   Overcast
9:24 AM 32.0 °F 21.6 °F 30.2 °F 93% 30.37 in 3.0 mi ENE 15.0 mph - N/A   Overcast
9:53 AM 32.0 °F 22.1 °F 30.0 °F 92% 30.42 in 4.0 mi ENE 13.8 mph - N/A   Overcast
10:53 AM 32.0 °F 21.2 °F 30.0 °F 92% 30.42 in 4.0 mi ENE 16.1 mph - N/A   Overcast
11:53 AM 32.0 °F 21.6 °F 30.0 °F 92% 30.41 in 3.0 mi ENE 15.0 mph - N/A   Overcast
12:53 PM 32.0 °F 21.2 °F 30.0 °F 92% 30.40 in 3.0 mi NE 16.1 mph - N/A   Overcast
1:37 PM 32.0 °F 22.1 °F 30.2 °F 93% 30.35 in 2.0 mi NE 13.8 mph - N/A   Overcast
1:53 PM 32.0 °F 21.6 °F 30.0 °F 92% 30.40 in 2.5 mi NE 15.0 mph - N/A   Overcast
2:10 PM 33.8 °F 24.3 °F 30.2 °F 87% 30.35 in 3.0 mi NE 13.8 mph - N/A   Overcast
2:53 PM 33.1 °F 22.6 °F 30.9 °F 92% 30.40 in 2.0 mi NE 16.1 mph - N/A   Overcast
3:05 PM 33.8 °F 23.9 °F 30.2 °F 87% 30.35 in 4.0 mi NE 15.0 mph - N/A   Overcast
3:20 PM 33.8 °F 23.5 °F 30.2 °F 87% 30.34 in 2.5 mi NE 16.1 mph - N/A   Overcast
3:33 PM 32.0 °F 20.5 °F 30.2 °F 93% 30.33 in 1.0 mi NE 18.4 mph - N/A   Overcast
3:53 PM 32.0 °F 20.8 °F 30.9 °F 96% 30.40 in 1.8 mi NE 17.3 mph - N/A   Overcast
4:01 PM 32.0 °F 20.5 °F 30.2 °F 93% 30.34 in 2.0 mi NE 18.4 mph - N/A   Overcast
4:12 PM 32.0 °F 20.5 °F 30.2 °F 93% 30.35 in 1.5 mi NE 18.4 mph - N/A   Overcast
4:27 PM 32.0 °F 20.8 °F 30.2 °F 93% 30.35 in 2.5 mi NE 17.3 mph - N/A   Overcast
4:45 PM 32.0 °F 21.6 °F 30.2 °F 93% 30.35 in 1.8 mi NE 15.0 mph - N/A   Overcast
4:53 PM 32.0 °F 21.2 °F 30.0 °F 92% 30.39 in 1.5 mi NE 16.1 mph - N/A   Overcast
5:25 PM 32.0 °F 21.6 °F 30.2 °F 93% 30.34 in 0.5 mi NE 15.0 mph - N/A Fog Fog
5:41 PM 32.0 °F 20.5 °F 30.2 °F 93% 30.33 in 2.0 mi NE 18.4 mph - N/A   Overcast
5:51 PM 32.0 °F 22.1 °F 30.2 °F 93% 30.33 in 4.0 mi ENE 13.8 mph 23.0 mph N/A   Overcast
5:53 PM 32.0 °F 22.1 °F 30.0 °F 92% 30.38 in 3.0 mi ENE 13.8 mph 23.0 mph N/A   Overcast
6:39 PM 32.0 °F 22.5 °F 30.2 °F 93% 30.35 in 1.8 mi NE 12.7 mph - N/A   Overcast
6:53 PM 32.0 °F 21.6 °F 30.0 °F 92% 30.40 in 2.5 mi NE 15.0 mph - N/A   Overcast
7:10 PM 32.0 °F 21.2 °F 30.2 °F 93% 30.36 in 1.8 mi NE 16.1 mph - N/A   Overcast
7:18 PM 32.0 °F 20.5 °F 30.2 °F 93% 30.37 in 2.5 mi NE 18.4 mph - N/A   Overcast
7:43 PM 30.2 °F 18.1 °F 30.2 °F 100% 30.37 in 1.0 mi NNE 18.4 mph - N/A   Overcast
7:53 PM 30.9 °F 19.1 °F 30.0 °F 96% 30.43 in 1.2 mi NE 18.4 mph - N/A   Overcast
8:18 PM 30.2 °F 18.1 °F 30.2 °F 100% 30.37 in 0.5 mi NNE 18.4 mph 25.3 mph N/A Fog Light Freezing Fog
8:33 PM 30.2 °F 19.3 °F 30.2 °F 100% 30.38 in 1.5 mi NNE 15.0 mph - N/A   Overcast
8:43 PM 30.2 °F 17.8 °F 28.4 °F 93% 30.38 in 2.5 mi NNE 19.6 mph - N/A   Overcast
8:53 PM 30.9 °F 19.1 °F 28.9 °F 92% 30.42 in 1.8 mi NNE 18.4 mph - N/A   Overcast
9:07 PM 30.2 °F 17.1 °F 28.4 °F 93% 30.36 in 3.0 mi NNE 21.9 mph 27.6 mph N/A   Overcast
9:53 PM 30.9 °F 18.4 °F 28.9 °F 92% 30.40 in 4.0 mi NE 20.7 mph - N/A   Overcast
10:53 PM 30.9 °F 20.7 °F 28.9 °F 92% 30.41 in 4.0 mi NNE 13.8 mph - N/A   Overcast
11:53 PM 30.9 °F 18.4 °F 28.9 °F 92% 30.37 in 3.0 mi NNE 20.7 mph - N/A   Overcast